Vorticity
-9 -6 9 43 44 21 22 16 12 18 6 9 9 7 7 9 8 7 10 12 11 4 8 13 14 14 14 17 18 22 25 23 29 19 18 9 18 19 6 17 21 4 10 9
1 10 -31 26 10 2 11 16 7 8 2 8 7 9 9 10 10 4 2 4 6 7 12 10 7 3 4 9 11 15 19 16 30 27 15 0 21 17 1 12 4 21 22 30
11 4 7 -22 7 15 14 15 13 10 10 10 10 10 9 7 9 11 10 7 11 9 7 7 7 6 8 8 9 6 -0 10 18 14 22 36 27 20 23 -2 6 21 -15 17
16 -2 10 6 14 8 4 2 3 2 0 4 5 5 10 9 9 9 10 9 7 6 6 6 8 8 7 7 6 6 8 10 11 1 10 14 25 40 21 19 24 19 21 17
7 12 13 11 8 6 0 6 5 6 9 9 9 5 8 7 6 7 7 8 8 9 7 7 8 8 6 7 8 9 9 9 8 5 9 6 2 6 17 30 34 30 23 32
-7 9 7 12 9 5 2 4 7 9 12 12 10 9 10 11 9 8 8 7 7 7 7 8 9 7 6 6 7 10 8 9 8 8 9 10 9 11 7 4 9 14 19 30
21 11 14 14 9 -6 7 19 9 13 12 10 9 7 7 7 7 8 8 8 8 8 8 9 8 8 9 9 12 9 9 9 9 8 7 7 7 9 8 9 9 6 3 8
9 10 9 20 23 -9 33 8 8 8 8 7 8 8 7 7 7 8 9 9 8 8 7 7 7 7 7 7 8 7 7 7 7 8 8 9 9 8 7 7 8 8 9 10
19 19 28 14 8 19 6 6 6 6 7 8 7 7 8 8 8 7 8 8 7 7 6 5 5 6 6 6 5 6 6 7 6 7 7 6 6 7 8 9 8 8 7 6
-12 10 11 12 7 8 8 8 8 7 7 7 7 7 7 7 7 7 6 5 4 6 6 6 6 6 7 7 7 8 8 8 8 8 7 8 9 10 8 7 7 9 9 9
24 8 7 7 7 7 7 9 9 7 6 7 7 7 7 8 8 7 6 6 6 6 6 7 7 7 8 7 7 7 7 6 7 6 7 8 7 7 8 10 11 9 7 7
13 13 6 9 9 9 9 9 8 7 7 7 8 9 9 7 6 5 6 6 7 7 8 8 8 8 7 7 7 8 8 7 7 7 7 7 8 9 7 7 9 12 15 12
11 17 16 12 10 7 5 6 7 8 10 10 10 10 7 7 6 7 8 9 9 8 9 9 8 7 8 9 9 8 8 8 7 8 8 8 9 10 10 14 12 10 14 18
15 15 13 10 9 10 8 8 10 9 9 9 9 7 6 6 8 9 8 7 8 9 8 8 7 7 9 8 9 9 9 9 9 9 9 10 11 12 12 13 12 15 16 13
11 9 8 6 6 8 9 8 9 9 10 8 6 6 9 9 8 8 8 8 8 9 9 8 7 9 8 9 9 9 9 9 9 9 10 10 10 10 10 11 13 16 17 19
11 10 11 11 12 10 9 8 10 10 7 7 9 9 9 8 8 8 9 9 9 9 9 9 11 10 10 10 10 10 11 11 11 11 11 11 11 11 12 12 12 13 16 17
10 5 4 9 11 10 11 12 9 8 9 9 9 7 7 8 8 8 8 7 8 9 9 9 10 11 12 12 12 12 13 13 12 12 12 11 11 11 12 12 13 13 13 16
12 6 2 5 11 11 12 9 9 9 9 7 7 7 6 6 5 5 7 7 7 9 9 9 9 9 10 10 10 11 12 12 13 13 13 13 12 12 12 13 13 13 14 14
7 8 7 7 11 13 7 7 7 7 6 6 6 4 5 5 7 6 5 5 6 5 6 8 9 9 9 9 10 11 12 13 13 13 13 13 13 13 13 12 13 13 14 14
11 9 10 10 12 9 4 4 5 5 5 5 4 4 6 6 6 6 5 5 4 4 4 5 8 10 10 10 11 11 12 12 13 13 13 14 13 13 12 12 12 12 12 14
13 12 13 13 13 6 4 4 5 6 5 4 4 5 5 6 6 5 5 6 6 6 5 4 8 11 11 11 11 12 12 13 13 14 14 14 13 13 13 13 12 12 13 13
17 15 18 14 10 3 5 5 5 5 5 4 5 5 6 5 5 6 6 7 7 7 8 6 8 11 11 11 12 13 14 14 14 15 15 15 14 14 14 13 13 14 13 14
16 15 13 11 4 4 5 4 5 5 4 5 5 5 5 5 5 6 8 7 8 7 9 6 9 12 11 13 14 15 15 15 14 14 14 14 14 14 14 14 13 13 14 13
13 14 9 5 6 5 5 5 6 5 5 5 5 5 5 5 5 6 7 7 9 10 10 6 11 12 13 15 14 14 14 14 13 13 13 13 13 14 13 13 14 13 13 13
14 9 5 5 5 4 6 6 6 5 5 6 5 5 5 4 6 6 8 8 10 12 8 8 12 13 14 14 14 13 13 12 12 12 12 12 12 13 14 14 14 13 13 13
12 7 4 4 5 7 7 6 5 7 6 6 5 6 6 6 7 8 9 11 10 11 6 12 14 15 14 14 13 13 12 12 11 10 11 12 12 12 13 13 13 13 13 14
13 9 7 7 7 5 6 6 7 7 8 7 6 7 7 8 8 9 11 10 12 5 11 16 15 14 13 13 12 11 11 10 9 10 11 11 12 11 12 12 12 12 12 13
Height
3033 3030 3025 3017 3012 3012 3014 3014 3015 3021 3021 3020 3020 3018 3016 3013 3009 3006 3001 2998 2995 2993 2990 2987 2983 2985 2985 2986 2987 2988 2988 2988 2988 2989 2990 2992 2993 2993 2994 2995 2996 2997 2999 3000
3031 3029 3026 3020 3017 3015 3016 3016 3019 3021 3021 3022 3021 3019 3017 3014 3012 3009 3005 3003 3002 3001 2998 2995 2992 2989 2989 2989 2988 2988 2988 2987 2987 2987 2986 2986 2987 2988 2988 2989 2990 2990 2991 2992
3029 3027 3026 3026 3025 3021 3019 3021 3023 3023 3024 3024 3023 3021 3019 3016 3013 3011 3008 3006 3004 3003 3000 2998 2996 2995 2993 2991 2989 2990 2990 2989 2987 2985 2984 2982 2982 2983 2983 2983 2983 2982 2981 2981
3027 3027 3028 3030 3029 3027 3025 3025 3025 3025 3025 3025 3024 3022 3021 3019 3017 3015 3013 3011 3008 3006 3004 3002 3000 3000 2998 2996 2994 2993 2993 2991 2989 2987 2984 2982 2980 2978 2977 2976 2975 2974 2974 2974
3026 3027 3030 3030 3029 3029 3027 3028 3027 3027 3027 3026 3025 3024 3023 3021 3020 3017 3015 3014 3011 3009 3007 3005 3005 3002 3000 2999 2997 2996 2995 2993 2991 2989 2986 2984 2982 2978 2976 2973 2971 2969 2968 2967
3024 3026 3027 3028 3028 3028 3028 3029 3029 3028 3027 3026 3026 3026 3025 3024 3022 3020 3019 3017 3015 3013 3011 3010 3007 3005 3003 3002 3001 2999 2996 2994 2992 2990 2988 2986 2983 2980 2976 2974 2971 2968 2965 2963
3023 3024 3026 3026 3027 3029 3031 3036 3029 3028 3028 3028 3028 3028 3027 3026 3024 3022 3021 3019 3017 3015 3014 3012 3010 3008 3007 3005 3004 3000 2997 2996 2995 2992 2990 2987 2984 2982 2979 2975 2972 2969 2965 2963
3023 3024 3027 3025 3027 3029 3030 3029 3030 3029 3029 3029 3029 3029 3028 3026 3024 3023 3022 3021 3019 3018 3016 3013 3011 3009 3007 3005 3002 2999 2997 2995 2994 2992 2989 2987 2984 2981 2979 2975 2973 2969 2965 2962
3023 3023 3023 3024 3026 3028 3029 3029 3029 3030 3030 3030 3029 3028 3027 3026 3025 3025 3025 3023 3021 3019 3017 3015 3013 3011 3008 3006 3002 3000 2996 2994 2992 2989 2987 2985 2983 2981 2978 2975 2971 2968 2965 2961
3022 3023 3023 3024 3026 3027 3028 3028 3029 3029 3028 3029 3028 3028 3028 3027 3026 3025 3023 3021 3019 3017 3015 3014 3011 3008 3005 3003 3000 2997 2995 2993 2989 2987 2985 2983 2980 2978 2975 2972 2969 2966 2962 2959
3020 3021 3023 3024 3025 3026 3028 3029 3029 3029 3028 3028 3028 3028 3027 3027 3026 3025 3024 3022 3020 3018 3016 3013 3010 3007 3004 3001 2998 2995 2993 2989 2986 2983 2980 2977 2976 2973 2970 2966 2964 2962 2958 2955
3020 3021 3022 3024 3025 3027 3028 3029 3030 3030 3030 3030 3029 3029 3028 3027 3026 3025 3023 3021 3019 3016 3013 3011 3008 3005 3002 2999 2996 2993 2990 2986 2983 2979 2976 2972 2968 2965 2962 2959 2956 2954 2952 2950
3020 3020 3022 3023 3025 3027 3028 3028 3029 3030 3030 3030 3030 3029 3029 3027 3026 3025 3023 3021 3018 3015 3013 3010 3007 3004 3000 2997 2993 2990 2987 2983 2979 2976 2973 2969 2965 2961 2957 2952 2949 2946 2944 2942
3020 3021 3022 3023 3024 3026 3027 3028 3029 3029 3029 3029 3028 3027 3025 3024 3023 3021 3019 3017 3015 3012 3009 3006 3003 3000 2997 2994 2990 2986 2982 2978 2974 2969 2965 2961 2957 2953 2949 2946 2942 2939 2936 2933
3019 3020 3022 3023 3023 3025 3026 3027 3027 3027 3027 3027 3026 3025 3024 3023 3021 3020 3017 3015 3012 3010 3006 3003 3000 2996 2992 2989 2986 2982 2978 2973 2968 2963 2958 2953 2949 2945 2940 2936 2933 2930 2927 2924
3018 3020 3021 3022 3023 3023 3024 3024 3025 3025 3025 3024 3024 3024 3022 3021 3020 3017 3015 3013 3010 3007 3004 3001 2997 2993 2989 2985 2980 2976 2971 2966 2962 2957 2953 2948 2943 2938 2934 2930 2926 2923 2920 2917
3017 3019 3020 3021 3022 3023 3023 3024 3024 3024 3024 3023 3023 3021 3020 3020 3017 3014 3013 3010 3008 3005 3002 2998 2993 2989 2985 2980 2976 2971 2966 2961 2956 2951 2946 2942 2937 2933 2928 2924 2920 2917 2914 2911
3015 3017 3018 3020 3020 3021 3022 3023 3023 3023 3023 3022 3020 3020 3019 3016 3013 3012 3010 3008 3004 3001 2997 2992 2988 2983 2978 2973 2968 2964 2959 2954 2950 2945 2941 2936 2931 2927 2922 2918 2914 2911 2908 2905
3012 3014 3016 3017 3018 3019 3020 3021 3021 3021 3021 3020 3018 3016 3014 3013 3012 3010 3007 3004 3000 2995 2991 2986 2982 2977 2972 2967 2962 2957 2952 2947 2942 2938 2934 2929 2924 2920 2916 2912 2908 2904 2901 2899
3008 3011 3013 3014 3015 3017 3018 3018 3019 3020 3019 3016 3014 3013 3012 3011 3009 3006 3003 2999 2995 2991 2987 2982 2977 2972 2967 2961 2956 2950 2945 2940 2935 2931 2926 2922 2918 2913 2909 2906 2902 2898 2895 2893
3004 3007 3009 3010 3013 3014 3015 3016 3017 3016 3014 3012 3011 3010 3009 3007 3005 3001 2998 2994 2990 2985 2981 2976 2971 2966 2960 2955 2949 2943 2938 2933 2928 2923 2919 2915 2911 2907 2903 2899 2896 2892 2889 2887
3002 3004 3006 3008 3010 3012 3013 3013 3012 3011 3010 3009 3008 3007 3005 3002 2999 2996 2992 2989 2984 2979 2975 2969 2964 2959 2953 2947 2941 2936 2931 2925 2921 2916 2912 2907 2903 2900 2896 2892 2889 2886 2883 2881
3000 3001 3003 3006 3007 3009 3009 3009 3009 3008 3007 3006 3004 3002 3000 2997 2994 2990 2986 2982 2977 2972 2967 2962 2956 2950 2944 2939 2933 2928 2923 2918 2914 2909 2905 2901 2897 2893 2889 2886 2883 2880 2877 2874
2999 3000 3002 3004 3005 3006 3006 3006 3005 3004 3003 3001 2999 2997 2994 2991 2987 2984 2979 2975 2970 2964 2959 2954 2948 2941 2936 2930 2925 2920 2915 2911 2907 2902 2898 2894 2890 2886 2882 2879 2876 2873 2871 2868
2996 2998 2999 3000 3001 3001 3001 3001 3000 2999 2997 2995 2993 2991 2988 2984 2981 2975 2971 2966 2961 2956 2950 2944 2939 2933 2927 2922 2917 2913 2908 2904 2900 2896 2891 2887 2883 2879 2876 2872 2869 2866 2864 2862
2994 2995 2995 2995 2996 2997 2996 2995 2994 2993 2991 2989 2987 2984 2980 2976 2972 2967 2963 2958 2952 2947 2942 2936 2930 2924 2919 2914 2910 2905 2901 2897 2893 2888 2884 2880 2876 2873 2869 2865 2862 2859 2857 2855
2989 2990 2991 2992 2992 2991 2990 2989 2988 2987 2985 2982 2979 2976 2972 2968 2964 2959 2954 2949 2944 2938 2933 2927 2922 2916 2911 2907 2902 2898 2893 2889 2884 2880 2876 2872 2868 2865 2862 2858 2855 2852 2850 2847